User: anonymous   Login
Location: Unspecified
(0.0000°N, 0.0000°E)
Time: 00:13:33
(UTC+00:00)
Language:

JASON 3 - Orbit

View from above orbital plane
View from above orbital plane
View from above satellite
View from above satellite

Ground track
Ground track

The orbit data is extracted from the following two-line orbital elements,

1 41240U 16002A   18112.58148374 -.00000050 +00000-0 +49239-4 0  9990
2 41240 066.0414 199.5248 0008089 271.0775 088.9314 12.80929347105774
Epoch (UTC): 22 April 2018 13:57:20
Eccentricity: 0.0008089
inclination: 66.0414°
perigee height: 1331 km
apogee height: 1344 km
right ascension of ascending node: 199.5248°
argument of perigee: 271.0775°
revolutions per day: 12.80929347
mean anomaly at epoch: 88.9314°
orbit number at epoch: 10577

The dashed part of the orbit path shows where the satellite is in the earth's shadow,  

DLR